STARLINK-2249 (48592 NORAD) Tracking and Keplerian Element Data

This shows tracking and keplerian element data for the satellite.

Feedback or suggestion? Click here.




ElementValue
Catalog48592
NameSTARLINK-2249
Epoch Orbit1221
Epoch Day215.13898572
Epoch Year2021
RAAN121.4064
Inclination53.0559
Eccentricity0.0001983
Argument of Perigee82.2596
Mean Anonmoly277.8618
Mean Motion15.0639202
Decay Rate8.19E-06
L11 48592U 21041AR 21215.13898572 .00000819 00000-0 73891-4 0 9990
L22 48592 53.0559 121.4064 0001983 82.2596 277.8618 15.06392020 12211

Live tracking and technical data element details for STARLINK-2249 (NORAD 48592). STARLINK-2249 can be tracked NOW for your location showing map with azimuth and elevation plus other details from your city location.

Track the satellite on the map from your city or location and see movement details for azimuth, elevation, latitude, longitude, range, height, and movement on the map or in text.







IsCatalogInMostPopularTable: catalog: 48592, numindb: 21
Update: records affected: 1



GetName: 48592 STARLINK-2249

Hit Count: updated at: Wed, 04 Aug 2021 00:41:47 GMT